GLOBALSTAR M001 1 25162U 98008A 26073.52556991 -.00000056 00000+0 30988-3 0 9993 2 25162 52.0020 266.3710 0002355 101.8035 276.1620 12.38229844277200 GLOBALSTAR M004 1 25163U 98008B 26072.91658841 -.00000061 00000+0 23764-3 0 9993 2 25163 52.0018 311.2619 0003277 155.4961 217.5844 12.63416774295781 GLOBALSTAR M002 1 25164U 98008C 26073.55686387 -.00000067 00000+0 19197-3 0 9992 2 25164 52.0011 282.2963 0000495 295.7557 64.3211 11.61515350215484 GLOBALSTAR M003 1 25165U 98008D 26073.43463358 -.00000197 00000+0 -11423-2 0 9999 2 25165 51.9846 139.9900 0008667 115.6815 257.6719 12.12023359265995 GLOBALSTAR M014 1 25306U 98023A 26073.61119096 -.00000085 00000+0 -13811-3 0 9990 2 25306 51.9826 199.6928 0001767 129.0700 243.9447 11.65485069222704 GLOBALSTAR M006 1 25307U 98023B 26073.51179448 -.00000043 00000+0 67420-3 0 9995 2 25307 51.9922 262.5250 0002390 226.5034 147.5927 11.58178051248157 GLOBALSTAR M015 1 25308U 98023C 26073.57578562 -.00000059 00000+0 33129-3 0 9998 2 25308 51.9862 13.2277 0012455 196.3817 334.1194 11.48861063225153 GLOBALSTAR M008 1 25309U 98023D 26073.57835801 -.00000080 00000+0 12805-3 0 9993 2 25309 51.9954 134.1117 0002600 35.3345 112.7129 12.36081632271288 GLOBALSTAR M023 1 25621U 99004A 26072.91588460 -.00000053 00000+0 28490-3 0 9990 2 25621 52.0119 312.1034 0009965 7.1135 5.7083 12.62518903249809 GLOBALSTAR M040 1 25622U 99004B 26073.63070711 -.00000065 00000+0 21873-3 0 9997 2 25622 51.9933 314.4783 0000131 308.7566 71.4721 12.62029848249402 GLOBALSTAR M036 1 25623U 99004C 26073.51156495 -.00000047 00000+0 52508-3 0 9998 2 25623 51.9950 247.7886 0010196 205.6387 167.2462 11.86620965211072 GLOBALSTAR M038 1 25624U 99004D 26073.13253929 -.00000081 00000+0 11442-3 0 9997 2 25624 52.0005 14.1474 0001285 260.6653 112.0681 12.32542137235669 GLOBALSTAR M022 1 25649U 99012A 26073.54201240 -.00000033 00000+0 64394-3 0 9998 2 25649 52.0029 275.9480 0002556 4.4572 10.8641 12.02511152208900 GLOBALSTAR M041 1 25650U 99012B 26073.51013591 -.00000113 00000+0 -35462-3 0 9991 2 25650 52.0013 165.7250 0001948 132.8413 227.2587 11.96683830210642 GLOBALSTAR M046 1 25651U 99012C 26073.60375384 -.00000099 00000+0 -11608-3 0 9992 2 25651 52.0043 216.0410 0002563 82.5688 359.4805 12.09418693216389 GLOBALSTAR M037 1 25652U 99012D 26073.40993383 -.00000094 00000+0 53311-4 0 9998 2 25652 52.0000 81.1114 0002195 69.1233 73.8831 12.62462445245407 GLOBALSTAR M045 1 25676U 99019A 26073.44657086 -.00000047 00000+0 41088-3 0 9997 2 25676 51.9953 254.9644 0001042 88.9302 283.1253 12.27074819226578 GLOBALSTAR M019 1 25677U 99019B 26073.62169049 -.00000208 00000+0 -12338-2 0 9990 2 25677 51.9891 43.8610 0001455 134.2583 37.4275 12.13884840217989 GLOBALSTAR M044 1 25678U 99019C 26073.61403140 -.00000072 00000+0 16509-3 0 9996 2 25678 51.9997 29.0714 0005950 198.7710 332.1727 11.90262857203523 GLOBALSTAR M042 1 25679U 99019D 26073.56416131 -.00000075 00000+0 16244-3 0 9994 2 25679 52.0048 7.6620 0003039 127.6316 43.5063 12.22094500218313 GLOBALSTAR M025 1 25770U 99031A 26073.55024925 -.00000047 00000+0 63298-3 0 9995 2 25770 51.9794 252.9545 0001740 202.4682 191.4356 11.22560921512079 GLOBALSTAR M049 1 25771U 99031B 26073.62212450 .00000010 00000+0 26265-2 0 9997 2 25771 51.9882 301.1429 0003422 107.4911 252.6260 11.12122164147513 GLOBALSTAR M047 1 25772U 99031C 26073.54673260 -.00000044 00000+0 70207-3 0 9993 2 25772 51.9816 272.4523 0016485 10.7504 349.3652 11.31932791501725 GLOBALSTAR M052 1 25773U 99031D 26073.15185474 -.00000102 00000+0 -12263-2 0 9999 2 25773 51.9884 47.0795 0002397 260.2464 183.3462 11.15064023508629 GLOBALSTAR M035 1 25851U 99037A 26073.64224373 -.00000048 00000+0 57581-3 0 9999 2 25851 51.9943 171.8206 0013819 63.6347 77.1011 11.04541200126149 GLOBALSTAR M032 1 25852U 99037B 26073.44525704 -.00000007 00000+0 19058-2 0 9991 2 25852 51.9997 338.8161 0012200 262.7566 97.1847 11.19069238165045 GLOBALSTAR M051 1 25853U 99037C 26073.46904298 -.00000059 00000+0 30989-3 0 9997 2 25853 51.9775 108.8691 0000543 143.3360 216.7488 11.42200608163273 GLOBALSTAR M030 1 25854U 99037D 26073.50388540 -.00000050 00000+0 52589-3 0 9990 2 25854 51.9862 257.7002 0004078 148.7356 211.3704 11.55104238181281 GLOBALSTAR M048 1 25872U 99041A 26073.43227213 -.00000064 00000+0 15788-3 0 9991 2 25872 51.9378 54.4345 0013221 293.0810 238.6894 11.33862689155633 GLOBALSTAR M026 1 25873U 99041B 26073.61474457 -.00000041 00000+0 84931-3 0 9997 2 25873 52.0003 286.9924 0002123 20.0617 350.7936 11.06843285178435 GLOBALSTAR M043 1 25874U 99041C 26073.55199075 -.00000085 00000+0 -50161-3 0 9998 2 25874 51.9390 172.5683 0013482 55.7197 317.6325 11.25697944153328 GLOBALSTAR M028 1 25875U 99041D 26073.53481462 -.00000066 00000+0 21995-3 0 9992 2 25875 51.9612 106.9248 0063090 298.5618 60.8903 12.50597697224005 GLOBALSTAR M024 1 25883U 99043A 26073.48305617 -.00000057 00000+0 29158-3 0 9993 2 25883 52.0009 130.7380 0001998 172.1810 200.7712 11.10172778144882 GLOBALSTAR M027 1 25884U 99043B 26073.58505001 -.00000080 00000+0 -62442-3 0 9994 2 25884 52.0190 216.1498 0021855 69.6705 290.6435 11.04374025171118 GLOBALSTAR M054 1 25885U 99043C 26073.39868986 -.00000050 00000+0 54478-3 0 9994 2 25885 52.0144 298.5197 0003986 287.5651 243.8839 11.39224924149847 GLOBALSTAR M053 1 25886U 99043D 26073.50592775 -.00000043 00000+0 74006-3 0 9999 2 25886 51.9966 260.3545 0003715 165.4013 207.4640 11.27671182149944 GLOBALSTAR M058 1 25907U 99049A 26073.46762075 -.00000063 00000+0 28469-3 0 9990 2 25907 51.9921 107.4464 0002287 79.9328 280.1764 11.93208590573804 GLOBALSTAR M050 1 25908U 99049B 26073.51231929 -.00000162 00000+0 -83373-3 0 9992 2 25908 51.9974 94.8052 0009146 209.0880 296.4451 12.07465622180843 GLOBALSTAR M033 1 25909U 99049C 26073.65036683 -.00000115 00000+0 -22155-3 0 9997 2 25909 51.9926 307.5831 0015206 99.6662 260.5903 12.20303650568767 GLOBALSTAR M055 1 25910U 99049D 26073.66070824 -.00000060 00000+0 29095-3 0 9993 2 25910 52.0028 305.1291 0006734 340.8839 19.1759 12.29441816201555 GLOBALSTAR M057 1 25943U 99058A 26073.63771232 -.00000042 00000+0 46593-3 0 9999 2 25943 51.9989 300.6608 0002021 194.4780 165.6012 12.24835660200074 GLOBALSTAR M059 1 25944U 99058B 26073.62679922 -.00000100 00000+0 -17659-3 0 9999 2 25944 52.0011 195.5352 0001142 134.9543 238.7723 11.99994448606510 GLOBALSTAR M056 1 25945U 99058C 26073.62790481 -.00000012 00000+0 87940-3 0 9995 2 25945 51.9959 190.5620 0001000 44.1166 329.3238 12.04786722195229 GLOBALSTAR M031 1 25946U 99058D 26073.44866059 -.00000148 00000+0 -57900-3 0 9995 2 25946 51.9966 67.1867 0001372 18.8640 147.6717 12.16050665197427 GLOBALSTAR M039 1 25961U 99062A 26073.56355566 -.00000116 00000+0 -67222-4 0 9990 2 25961 51.9837 165.1881 0002555 213.1090 146.9617 12.62342905214365 GLOBALSTAR M034 1 25962U 99062B 26073.21975031 -.00000078 00000+0 47637-4 0 9992 2 25962 51.9900 29.4497 0013937 190.6923 277.8003 11.79456025170250 GLOBALSTAR M029 1 25963U 99062C 26073.43600458 -.00000064 00000+0 27977-3 0 9994 2 25963 51.9795 83.8550 0002293 284.9717 223.8949 11.99909043201562 GLOBALSTAR M061 1 25964U 99062D 26073.57662052 -.00000129 00000+0 -79419-3 0 9999 2 25964 51.9780 216.1499 0006822 114.0386 326.0517 11.76777646153017 GLOBALSTAR M063 1 26081U 00008A 26073.50615635 -.00000070 00000+0 17934-3 0 9998 2 26081 51.9938 119.6407 0004976 114.1640 33.5112 11.86181490189658 GLOBALSTAR M062 1 26082U 00008B 26073.63086169 -.00000037 00000+0 43574-3 0 9999 2 26082 51.9879 20.4747 0007368 333.7155 199.3425 12.43482061530264 GLOBALSTAR M060 1 26083U 00008C 26073.11550205 -.00000155 00000+0 -63549-3 0 9996 2 26083 52.0051 20.1893 0003096 322.9615 49.7966 12.17674845185250 GLOBALSTAR M064 1 26084U 00008D 26073.60670959 -.00000093 00000+0 -14256-3 0 9992 2 26084 52.0021 215.0170 0001553 184.2933 175.7887 11.88542596199250 GLOBALSTAR M065 1 31571U 07020A 26073.55607378 -.00000088 00000+0 88869-4 0 9994 2 31571 51.9881 123.3381 0010020 185.2000 332.0505 12.62021254867544 GLOBALSTAR M069 1 31573U 07020C 26073.60414608 -.00000108 00000+0 -14326-3 0 9994 2 31573 52.0027 159.8334 0001145 313.9891 185.3621 12.23468885867223 GLOBALSTAR M072 1 31574U 07020D 26073.54530350 -.00000075 00000+0 12531-3 0 9999 2 31574 51.9969 352.2095 0001519 108.5490 62.4636 11.91656079863694 GLOBALSTAR M071 1 31576U 07020F 26073.55762050 -.00000026 00000+0 64334-3 0 9990 2 31576 52.0054 193.2031 0000091 206.5974 235.7315 12.18266912527897 GLOBALSTAR M067 1 32263U 07048A 26073.40352822 -.00000077 00000+0 14977-3 0 9994 2 32263 51.9749 325.2473 0000941 158.0554 13.3948 12.40685194843026 GLOBALSTAR M070 1 32264U 07048B 26073.12954417 -.00000096 00000+0 41533-4 0 9992 2 32264 51.9774 26.1365 0000654 59.6458 314.0153 12.62331503847762 GLOBALSTAR M066 1 32265U 07048C 26073.66860194 -.00000088 00000+0 54965-4 0 9994 2 32265 51.9613 329.2514 0004299 196.2857 179.6616 12.30386792848594 GLOBALSTAR M068 1 32266U 07048D 26073.59092762 -.00000103 00000+0 44272-5 0 9994 2 32266 51.9879 197.9612 0001169 54.7324 318.5017 12.62842217851720 GLOBALSTAR M079 1 37188U 10054A 26073.61467169 -.00000100 00000+0 22000-4 0 9994 2 37188 52.0059 36.5605 0000537 107.2635 64.4542 12.62263948710606 GLOBALSTAR M074 1 37189U 10054B 26073.23091223 -.00000107 00000+0 -17760-4 0 9992 2 37189 52.0034 37.0097 0000270 73.4359 32.9363 12.62266326711168 GLOBALSTAR M076 1 37190U 10054C 26073.09318357 -.00000097 00000+0 35353-4 0 9993 2 37190 52.0048 37.6234 0000316 126.2489 314.1335 12.62270599710863 GLOBALSTAR M077 1 37191U 10054D 26073.26585712 -.00000096 00000+0 -31841-3 0 9991 2 37191 51.9986 60.3015 0000830 146.2573 226.4606 11.68156472710055 GLOBALSTAR M075 1 37192U 10054E 26073.43850132 -.00000099 00000+0 25954-4 0 9993 2 37192 51.9938 78.6797 0000361 93.0762 57.3880 12.62264951709971 GLOBALSTAR M073 1 37193U 10054F 26073.52238589 -.00000098 00000+0 29619-4 0 9991 2 37193 52.0093 352.4539 0000592 99.8022 71.0391 12.62265229711974 GLOBALSTAR M083 1 37739U 11033A 26073.58016413 -.00000067 00000+0 20631-3 0 9991 2 37739 51.9862 300.6380 0000862 99.8658 275.2689 12.62267923681007 GLOBALSTAR M088 1 37740U 11033B 26073.63293848 -.00000110 00000+0 -36751-4 0 9999 2 37740 52.0205 206.6730 0000734 106.9659 266.6961 12.62262281676558 GLOBALSTAR M091 1 37741U 11033C 26073.56685238 -.00000111 00000+0 -39558-4 0 9999 2 37741 51.9990 169.9799 0000770 108.7998 264.8577 12.62270379677337 GLOBALSTAR M085 1 37742U 11033D 26073.58676448 -.00000094 00000+0 57270-4 0 9995 2 37742 52.0110 121.1282 0000667 111.1418 53.3295 12.62269755677841 GLOBALSTAR M081 1 37743U 11033E 26073.53026991 -.00000091 00000+0 69068-4 0 9998 2 37743 51.9947 123.8447 0000513 129.2440 18.2575 12.62262928677986 GLOBALSTAR M089 1 37744U 11033F 26073.41083701 -.00000084 00000+0 11156-3 0 9994 2 37744 51.9922 78.3835 0000060 160.7498 343.8542 12.62264902678813 GLOBALSTAR M084 1 38040U 11080A 26073.63396703 -.00000074 00000+0 16428-3 0 9995 2 38040 52.0017 305.1391 0000485 86.2722 292.6143 12.62265657656824 GLOBALSTAR M080 1 38041U 11080B 26073.60512941 -.00000067 00000+0 20673-3 0 9996 2 38041 52.0070 306.9134 0001183 74.0343 303.2531 12.62267375656940 GLOBALSTAR M082 1 38042U 11080C 26073.54600382 -.00000075 00000+0 16231-3 0 9991 2 38042 52.0064 262.5827 0001154 87.0434 311.4037 12.62268488657649 GLOBALSTAR M092 1 38043U 11080D 26073.54898156 -.00000090 00000+0 78300-4 0 9993 2 38043 52.0115 352.9636 0000547 74.5499 97.3279 12.62264594656096 GLOBALSTAR M090 1 38044U 11080E 26073.48898223 -.00000080 00000+0 13405-3 0 9995 2 38044 52.0107 256.6814 0000936 100.6273 277.5986 12.62272074657752 GLOBALSTAR M086 1 38045U 11080F 26073.42996711 -.00000061 00000+0 24089-3 0 9990 2 38045 51.9888 256.9456 0001151 159.6201 205.2457 12.62284192657695 GLOBALSTAR M097 1 39072U 13005A 26073.45790416 -.00000118 00000+0 -80594-4 0 9995 2 39072 52.0041 171.6963 0000800 120.2202 239.8744 12.62265647604946 GLOBALSTAR M093 1 39073U 13005B 26073.59014535 -.00000110 00000+0 -37244-4 0 9998 2 39073 52.0101 164.6072 0000934 125.2744 234.8210 12.62263899604918 GLOBALSTAR M094 1 39074U 13005C 26073.27359427 -.00000095 00000+0 47324-4 0 9997 2 39074 51.9950 79.7818 0000531 117.0264 243.0657 12.62267229606484 GLOBALSTAR M096 1 39075U 13005D 26073.52432620 -.00000093 00000+0 62208-4 0 9999 2 39075 52.0061 127.7464 0000668 116.3883 243.7052 12.62263736605430 GLOBALSTAR M078 1 39076U 13005E 26073.57680157 -.00000107 00000+0 -19922-4 0 9997 2 39076 51.9863 211.7251 0001480 79.6411 280.4622 12.62276072604064 GLOBALSTAR M095 1 39077U 13005F 26073.52424050 -.00000113 00000+0 -49726-4 0 9993 2 39077 52.0070 209.3557 0001255 103.7434 256.3573 12.62276263603915 GLOBALSTAR M087 1 52888U 22064A 26073.45847270 -.00000083 00000+0 11824-3 0 9990 2 52888 52.0027 350.8515 0000801 88.3579 271.7380 12.62267161179172